Location: Unspecified
(0.0000°N, 0.0000°E)
Time: 21:11:04
(UTC+00:00)

Explorer 7 - Pass Details

Date: 16 June 2025
Orbit: 444 x 569 km, 50.3° (Epoch: 12 July)

Event Time Altitude Azimuth Distance (km) Brightness Sun altitude
Rises 12:18:47 0° 211° (SSW) 2,704 10.2 66.2°
Reaches altitude 10° 12:21:05 10° 207° (SSW) 1,790 9.4 66.1°
Maximum altitude 12:25:06 60° 127° (SE) 595 7.7 65.9°
Drops below altitude 10° 12:28:56 10° 47° (NE) 1,706 9.6 65.7°
Sets 12:31:05 0° 43° (NE) 2,563 10.4 65.5°
